| time (UTC) | temp C | wind direction | speed KPH | gust KPH | rain 1hr cm | rain 24hr cm | rain mn cm | humidity % | barometer mb |
| 20260905094214 | 12 | 0 | 0.0 | 0.0 | 0.00 | 2.01 | 0.00 | 95 | 1015.7 |
| 20260905093701 | 12 | 0 | 0.0 | 0.0 | 0.00 | 2.01 | 0.00 | 95 | 1015.7 |
| 20260905093148 | 12 | 0 | 0.0 | 0.0 | 0.00 | 2.01 | 0.00 | 95 | 1015.6 |
| 20260905092635 | 12 | 0 | 0.0 | 0.0 | 0.00 | 2.01 | 0.00 | 95 | 1015.6 |
| 20260905092122 | 12 | 0 | 0.0 | 0.0 | 0.00 | 2.01 | 0.00 | 95 | 1015.7 |
| 20260905091610 | 12 | 0 | 0.0 | 0.0 | 0.00 | 2.01 | 0.00 | 95 | 1015.6 |
| 20260905091056 | 12 | 0 | 0.0 | 0.0 | 0.00 | 2.01 | 0.00 | 95 | 1015.5 |
| 20260905090543 | 12 | 0 | 0.0 | 0.0 | 0.00 | 2.01 | 0.00 | 95 | 1015.5 |
| 20260905090030 | 12 | 0 | 0.0 | 0.0 | 0.00 | 2.01 | 0.00 | 95 | 1015.5 |
| 20260905085517 | 12 | 0 | 0.0 | 0.0 | 0.00 | 2.06 | 0.00 | 95 | 1015.4 |
| 20260905085004 | 12 | 0 | 0.0 | 0.0 | 0.00 | 2.06 | 0.00 | 95 | 1015.5 |
| 20260905084451 | 12 | 0 | 0.0 | 0.0 | 0.00 | 2.06 | 0.00 | 95 | 1015.5 |
| 20260905083424 | 12 | 0 | 0.0 | 0.0 | 0.00 | 2.06 | 0.00 | 95 | 1015.5 |
| 20260905082912 | 12 | 0 | 0.0 | 0.0 | 0.00 | 2.06 | 0.00 | 95 | 1015.4 |
| 20260905082359 | 12 | 0 | 0.0 | 0.0 | 0.00 | 2.06 | 0.00 | 95 | 1015.4 |
| 20260905081846 | 12 | 0 | 0.0 | 0.0 | 0.00 | 2.06 | 0.00 | 95 | 1015.4 |
| 20260905081332 | 12 | 0 | 0.0 | 0.0 | 0.00 | 2.06 | 0.00 | 95 | 1015.3 |
| 20260905080820 | 12 | 0 | 0.0 | 0.0 | 0.00 | 2.06 | 0.00 | 95 | 1015.3 |
| 20260905080306 | 12 | 0 | 0.0 | 0.0 | 0.00 | 2.06 | 0.00 | 95 | 1015.3 |
| 20260905075754 | 12 | 0 | 0.0 | 0.0 | 0.00 | 2.11 | 0.00 | 95 | 1015.2 |
| 20260905075240 | 12 | 0 | 0.0 | 0.0 | 0.00 | 2.11 | 2.06 | 95 | 1015.1 |
| 20260905074729 | 12 | 0 | 0.0 | 0.0 | 0.00 | 2.11 | 2.06 | 95 | 1015.1 |
| 20260905073701 | 12 | 0 | 0.0 | 0.0 | 0.00 | 2.11 | 2.06 | 94 | 1015.1 |
| 20260905073149 | 12 | 0 | 0.0 | 0.0 | 0.00 | 2.11 | 2.06 | 94 | 1015.1 |
| 20260905072636 | 12 | 0 | 0.0 | 0.0 | 0.00 | 2.11 | 2.06 | 94 | 1015.1 |
| 20260905071609 | 12 | 0 | 0.0 | 0.0 | 0.00 | 2.11 | 2.06 | 94 | 1014.9 |
| 20260905071056 | 12 | 0 | 0.0 | 0.0 | 0.00 | 2.11 | 2.06 | 94 | 1014.9 |
| 20260905070543 | 12 | 0 | 0.0 | 0.0 | 0.00 | 2.11 | 2.06 | 94 | 1014.9 |
| 20260905070030 | 12 | 0 | 0.0 | 0.0 | 0.00 | 2.11 | 2.06 | 94 | 1014.9 |
| 20260905065517 | 12 | 0 | 0.0 | 0.0 | 0.00 | 2.64 | 2.06 | 94 | 1014.8 |
| 20260905065004 | 12 | 0 | 0.0 | 0.0 | 0.00 | 2.64 | 2.06 | 94 | 1014.8 |
| 20260905064451 | 12 | 0 | 0.0 | 0.0 | 0.00 | 2.64 | 2.06 | 94 | 1014.8 |
| 20260905063938 | 12 | 0 | 0.0 | 0.0 | 0.00 | 2.64 | 2.06 | 94 | 1014.8 |
| 20260905063425 | 12 | 0 | 0.0 | 0.0 | 0.00 | 2.64 | 2.06 | 94 | 1014.7 |
| 20260905062912 | 12 | 0 | 0.0 | 0.0 | 0.00 | 2.64 | 2.06 | 94 | 1014.7 |
| 20260905062359 | 12 | 0 | 0.0 | 0.0 | 0.00 | 2.64 | 2.06 | 94 | 1014.7 |
| 20260905061846 | 12 | 0 | 0.0 | 0.0 | 0.00 | 2.64 | 2.06 | 94 | 1014.7 |
| 20260905061333 | 12 | 0 | 0.0 | 0.0 | 0.00 | 2.64 | 2.06 | 94 | 1014.7 |
| 20260905060821 | 12 | 0 | 0.0 | 0.0 | 0.00 | 2.64 | 2.06 | 94 | 1014.6 |
| 20260905055754 | 12 | 0 | 0.0 | 0.0 | 0.00 | 2.97 | 2.06 | 94 | 1014.6 |
| 20260905055241 | 12 | 0 | 0.0 | 0.0 | 0.00 | 2.97 | 2.06 | 94 | 1014.7 |
| 20260905054728 | 12 | 0 | 0.0 | 0.0 | 0.00 | 2.97 | 2.06 | 94 | 1014.7 |
| 20260905054215 | 12 | 0 | 0.0 | 0.0 | 0.00 | 2.97 | 2.06 | 94 | 1014.6 |
| 20260905053702 | 12 | 0 | 0.0 | 0.0 | 0.00 | 2.97 | 2.06 | 94 | 1014.6 |
| 20260905053149 | 12 | 0 | 0.0 | 0.0 | 0.00 | 2.97 | 2.06 | 94 | 1014.6 |
| 20260905052636 | 12 | 0 | 0.0 | 0.0 | 0.00 | 2.97 | 2.06 | 94 | 1014.6 |
| 20260905052123 | 12 | 0 | 0.0 | 0.0 | 0.00 | 2.97 | 2.06 | 94 | 1014.6 |
| 20260905051610 | 12 | 0 | 0.0 | 0.0 | 0.00 | 2.97 | 2.06 | 94 | 1014.6 |
| 20260905051058 | 12 | 0 | 0.0 | 0.0 | 0.00 | 2.97 | 2.06 | 94 | 1014.5 |
| 20260905050544 | 12 | 0 | 0.0 | 0.0 | 0.00 | 2.97 | 2.06 | 94 | 1014.5 |
| 20260905050031 | 12 | 0 | 0.0 | 0.0 | 0.00 | 2.97 | 2.06 | 94 | 1014.5 |
| 20260905045005 | 12 | 0 | 0.0 | 0.0 | 0.00 | 3.20 | 2.06 | 94 | 1014.3 |
| 20260905044452 | 12 | 0 | 0.0 | 0.0 | 0.00 | 3.20 | 2.06 | 94 | 1014.3 |
| 20260905043939 | 13 | 0 | 0.0 | 0.0 | 0.00 | 3.20 | 2.06 | 94 | 1014.3 |
| 20260905043426 | 13 | 0 | 0.0 | 0.0 | 0.00 | 3.20 | 2.06 | 93 | 1014.3 |
| 20260905042913 | 12 | 0 | 0.0 | 0.0 | 0.00 | 3.20 | 2.06 | 93 | 1014.2 |
| 20260905042400 | 13 | 0 | 0.0 | 0.0 | 0.00 | 3.20 | 2.06 | 93 | 1014.2 |
| 20260905041847 | 12 | 0 | 0.0 | 0.0 | 0.00 | 3.20 | 2.06 | 93 | 1014.2 |
| 20260905041334 | 13 | 0 | 0.0 | 0.0 | 0.00 | 3.20 | 2.06 | 93 | 1014.1 |
| 20260905040821 | 12 | 0 | 0.0 | 0.0 | 0.00 | 3.20 | 2.06 | 93 | 1014.1 |
| 20260905040308 | 13 | 0 | 0.0 | 0.0 | 0.00 | 3.20 | 2.06 | 93 | 1014.1 |
| 20260905035756 | 13 | 0 | 0.0 | 0.0 | 0.00 | 3.48 | 2.06 | 93 | 1014.1 |
| 20260905035242 | 13 | 0 | 0.0 | 0.0 | 0.00 | 3.48 | 2.06 | 93 | 1014.1 |
| 20260905034729 | 13 | 0 | 0.0 | 0.0 | 0.03 | 3.48 | 2.06 | 93 | 1014.0 |
| 20260905034216 | 13 | 0 | 0.0 | 0.0 | 0.03 | 3.48 | 2.06 | 93 | 1013.9 |
| 20260905033703 | 13 | 0 | 0.0 | 0.0 | 0.08 | 3.48 | 2.06 | 93 | 1013.9 |
| 20260905033150 | 13 | 0 | 0.0 | 0.0 | 0.08 | 3.48 | 2.06 | 93 | 1013.8 |
| 20260905032637 | 13 | 0 | 0.0 | 0.0 | 0.15 | 3.48 | 2.06 | 93 | 1013.7 |
| 20260905032124 | 13 | 0 | 0.0 | 0.0 | 0.15 | 3.48 | 2.06 | 93 | 1013.7 |
| 20260905031058 | 13 | 0 | 0.0 | 0.0 | 0.15 | 3.48 | 2.06 | 93 | 1013.6 |
| 20260905030545 | 13 | 0 | 0.0 | 0.0 | 0.15 | 3.48 | 2.06 | 93 | 1013.6 |
| 20260905030033 | 13 | 0 | 0.0 | 6.4 | 0.15 | 3.48 | 2.06 | 92 | 1013.6 |
| 20260905025519 | 13 | 0 | 0.0 | 6.4 | 0.15 | 3.48 | 2.06 | 92 | 1013.6 |
| 20260905025006 | 13 | 0 | 0.0 | 6.4 | 0.15 | 3.48 | 2.06 | 92 | 1013.6 |
| 20260905024453 | 13 | 0 | 0.0 | 0.0 | 0.13 | 3.48 | 2.03 | 92 | 1013.5 |
| 20260905023940 | 14 | 0 | 0.0 | 6.4 | 0.08 | 3.48 | 2.03 | 92 | 1013.6 |
| 20260905023427 | 14 | 21 | 0.0 | 6.4 | 0.08 | 3.48 | 2.01 | 92 | 1013.6 |
| 20260905022914 | 14 | 74 | 0.0 | 4.8 | 0.00 | 3.48 | 1.98 | 92 | 1013.6 |
| 20260905022401 | 14 | 0 | 0.0 | 0.0 | 0.00 | 3.48 | 1.91 | 92 | 1013.6 |
| 20260905021848 | 14 | 0 | 0.0 | 0.0 | 0.00 | 3.48 | 1.91 | 92 | 1013.5 |
| 20260905020823 | 14 | 74 | 0.0 | 8.0 | 0.00 | 3.48 | 1.91 | 92 | 1013.4 |
| 20260905020309 | 14 | 61 | 1.6 | 8.0 | 0.00 | 3.48 | 1.91 | 91 | 1013.4 |
| 20260905015756 | 14 | 357 | 3.2 | 8.0 | 0.00 | 3.61 | 1.91 | 91 | 1013.3 |
| 20260905015243 | 14 | 64 | 0.0 | 8.0 | 0.00 | 3.61 | 1.91 | 91 | 1013.3 |
| 20260905014730 | 15 | 0 | 0.0 | 0.0 | 0.00 | 3.61 | 1.91 | 91 | 1013.2 |
| 20260905014217 | 15 | 0 | 0.0 | 0.0 | 0.00 | 3.61 | 1.91 | 91 | 1013.1 |
| 20260905013704 | 15 | 0 | 0.0 | 0.0 | 0.00 | 3.61 | 1.91 | 91 | 1013.1 |
| 20260905012638 | 15 | 0 | 0.0 | 0.0 | 0.00 | 3.61 | 1.91 | 91 | 1013.0 |
| 20260905012125 | 16 | 0 | 0.0 | 0.0 | 0.00 | 3.61 | 1.91 | 91 | 1013.0 |
| 20260905011612 | 16 | 0 | 0.0 | 0.0 | 0.00 | 3.61 | 1.91 | 91 | 1013.0 |
| 20260905011059 | 16 | 0 | 0.0 | 0.0 | 0.00 | 3.61 | 1.91 | 91 | 1013.0 |
| 20260905010546 | 16 | 0 | 0.0 | 0.0 | 0.00 | 3.61 | 1.91 | 91 | 1012.9 |
| 20260905010033 | 16 | 0 | 0.0 | 0.0 | 0.00 | 3.61 | 1.91 | 91 | 1012.9 |
| 20260905005520 | 16 | 0 | 0.0 | 0.0 | 0.00 | 3.76 | 1.91 | 91 | 1012.8 |
| 20260905005007 | 16 | 0 | 0.0 | 6.4 | 0.00 | 3.76 | 1.91 | 91 | 1012.7 |
| 20260905004454 | 17 | 0 | 0.0 | 6.4 | 0.00 | 3.76 | 1.91 | 92 | 1012.7 |
| 20260905003941 | 16 | 180 | 0.0 | 6.4 | 0.00 | 3.76 | 1.91 | 92 | 1012.6 |
| 20260905003428 | 17 | 0 | 0.0 | 0.0 | 0.00 | 3.76 | 1.91 | 92 | 1012.5 |
| 20260905002915 | 16 | 0 | 0.0 | 0.0 | 0.00 | 3.76 | 1.91 | 91 | 1012.5 |
| 20260905002402 | 17 | 228 | 0.0 | 6.4 | 0.00 | 3.76 | 1.91 | 91 | 1012.5 |
| 20260905001849 | 17 | 0 | 0.0 | 6.4 | 0.00 | 3.76 | 1.91 | 92 | 1012.5 |
| 20260905000823 | 17 | 256 | 1.6 | 12.9 | 0.00 | 3.76 | 1.91 | 92 | 1012.5 |
| 20260905000310 | 17 | 264 | 0.0 | 12.9 | 0.00 | 3.76 | 1.91 | 93 | 1012.4 |
| 20260904235757 | 16 | 257 | 0.0 | 12.9 | 0.00 | 3.78 | 1.91 | 93 | 1012.4 |
| 20260904235244 | 16 | 298 | 0.0 | 8.0 | 0.00 | 3.78 | 1.91 | 93 | 1012.3 |
| 20260904234218 | 16 | 313 | 9.7 | 14.5 | 0.03 | 3.78 | 1.91 | 93 | 1012.2 |
| 20260904233705 | 17 | 235 | 9.7 | 14.5 | 0.03 | 3.78 | 1.91 | 93 | 1012.3 |
| 20260904233152 | 17 | 287 | 3.2 | 12.9 | 0.03 | 3.78 | 1.91 | 93 | 1012.2 |
| 20260904232639 | 17 | 271 | 6.4 | 14.5 | 0.03 | 3.78 | 1.91 | 93 | 1012.2 |
| 20260904232126 | 17 | 0 | 0.0 | 14.5 | 0.03 | 3.78 | 1.91 | 94 | 1012.1 |
| 20260904231613 | 16 | 0 | 0.0 | 14.5 | 0.03 | 3.78 | 1.91 | 94 | 1012.1 |
| 20260904231100 | 16 | 273 | 4.8 | 17.7 | 0.03 | 3.78 | 1.91 | 93 | 1012.1 |
| 20260904230547 | 16 | 236 | 3.2 | 17.7 | 0.03 | 3.78 | 1.91 | 94 | 1012.2 |
| 20260904230034 | 16 | 252 | 8.0 | 17.7 | 0.03 | 3.78 | 1.91 | 94 | 1012.2 |
| 20260904225521 | 16 | 275 | 9.7 | 16.1 | 0.03 | 3.76 | 1.91 | 94 | 1012.1 |
| 20260904225008 | 15 | 329 | 9.7 | 16.1 | 0.03 | 3.76 | 1.91 | 94 | 1012.1 |
| 20260904224455 | 15 | 0 | 3.2 | 14.5 | 0.00 | 3.76 | 1.91 | 94 | 1012.2 |
| 20260904223942 | 15 | 252 | 4.8 | 14.5 | 0.00 | 3.76 | 1.88 | 93 | 1012.2 |
| 20260904223429 | 16 | 254 | 0.0 | 14.5 | 0.00 | 3.76 | 1.88 | 93 | 1012.1 |
| 20260904222916 | 16 | 257 | 1.6 | 9.7 | 0.00 | 3.76 | 1.88 | 94 | 1012.1 |
| 20260904222403 | 16 | 0 | 0.0 | 0.0 | 0.00 | 3.76 | 1.88 | 94 | 1012.0 |
| 20260904221337 | 15 | 259 | 4.8 | 9.7 | 0.00 | 3.76 | 1.88 | 94 | 1012.0 |
| 20260904220824 | 16 | 226 | 0.0 | 9.7 | 0.00 | 3.76 | 1.88 | 94 | 1012.1 |
| 20260904220311 | 16 | 170 | 0.0 | 3.2 | 0.00 | 3.76 | 1.88 | 94 | 1012.1 |
| 20260904215758 | 16 | 0 | 0.0 | 0.0 | 0.00 | 3.76 | 1.88 | 94 | 1012.0 |
| 20260904215245 | 16 | 0 | 0.0 | 9.7 | 0.00 | 3.76 | 1.88 | 93 | 1012.0 |
| 20260904214219 | 16 | 201 | 0.0 | 9.7 | 0.00 | 3.76 | 1.88 | 94 | 1011.9 |
| 20260904213706 | 16 | 0 | 0.0 | 0.0 | 0.00 | 3.76 | 1.88 | 95 | 1011.9 |
| 20260904213153 | 16 | 0 | 0.0 | 0.0 | 0.00 | 3.76 | 1.88 | 95 | 1011.9 |
| 20260904212640 | 15 | 0 | 0.0 | 0.0 | 0.00 | 3.76 | 1.88 | 95 | 1011.8 |
| 20260904212127 | 15 | 0 | 0.0 | 8.0 | 0.00 | 3.76 | 1.88 | 95 | 1011.8 |
| 20260904211614 | 15 | 0 | 0.0 | 8.0 | 0.00 | 3.76 | 1.88 | 95 | 1011.7 |
| 20260904211101 | 15 | 0 | 0.0 | 8.0 | 0.00 | 3.76 | 1.88 | 95 | 1011.7 |
| 20260904210548 | 15 | 207 | 0.0 | 4.8 | 0.00 | 3.76 | 1.88 | 95 | 1011.7 |
| 20260904210035 | 15 | 0 | 0.0 | 8.0 | 0.00 | 3.76 | 1.88 | 95 | 1011.7 |
| 20260904205522 | 15 | 0 | 0.0 | 8.0 | 0.00 | 3.91 | 1.88 | 94 | 1011.8 |
| 20260904205009 | 16 | 0 | 0.0 | 8.0 | 0.00 | 3.91 | 1.88 | 95 | 1011.7 |
| 20260904204456 | 16 | 0 | 0.0 | 0.0 | 0.00 | 3.91 | 1.88 | 95 | 1011.6 |
| 20260904203943 | 16 | 0 | 0.0 | 0.0 | 0.00 | 3.91 | 1.88 | 96 | 1011.7 |
| 20260904203430 | 14 | 0 | 0.0 | 0.0 | 0.00 | 3.91 | 1.88 | 96 | 1011.7 |
| 20260904202917 | 15 | 0 | 0.0 | 0.0 | 0.00 | 3.91 | 1.88 | 96 | 1011.8 |
| 20260904202404 | 14 | 0 | 0.0 | 0.0 | 0.00 | 3.91 | 1.88 | 96 | 1011.8 |
| 20260904201851 | 14 | 0 | 0.0 | 0.0 | 0.00 | 3.91 | 1.88 | 95 | 1011.7 |
| 20260904200825 | 14 | 0 | 0.0 | 3.2 | 0.00 | 3.91 | 1.88 | 95 | 1011.8 |
| 20260904200313 | 15 | 235 | 0.0 | 3.2 | 0.00 | 3.91 | 1.88 | 95 | 1011.7 |
| 20260904195759 | 15 | 0 | 0.0 | 0.0 | 0.00 | 3.96 | 1.88 | 95 | 1011.6 |
| 20260904195245 | 15 | 0 | 0.0 | 0.0 | 0.00 | 3.96 | 1.88 | 96 | 1011.5 |
| 20260904194733 | 14 | 0 | 0.0 | 0.0 | 0.00 | 3.96 | 1.88 | 96 | 1011.5 |
| 20260904194220 | 14 | 0 | 0.0 | 0.0 | 0.00 | 3.96 | 1.88 | 96 | 1011.5 |
| 20260904193707 | 14 | 0 | 0.0 | 0.0 | 0.03 | 3.96 | 1.88 | 96 | 1011.5 |
| 20260904193153 | 13 | 0 | 0.0 | 0.0 | 0.03 | 3.96 | 1.88 | 96 | 1011.5 |
| 20260904192641 | 13 | 0 | 0.0 | 0.0 | 0.03 | 3.96 | 1.88 | 96 | 1011.5 |
| 20260904192127 | 14 | 0 | 0.0 | 0.0 | 0.03 | 3.96 | 1.88 | 96 | 1011.5 |
| 20260904191614 | 14 | 0 | 0.0 | 0.0 | 0.03 | 3.96 | 1.88 | 96 | 1011.5 |
| 20260904191101 | 14 | 0 | 0.0 | 0.0 | 0.03 | 3.96 | 1.88 | 96 | 1011.6 |
| 20260904190548 | 14 | 0 | 0.0 | 0.0 | 0.03 | 3.96 | 1.88 | 96 | 1011.5 |
| 20260904190035 | 14 | 0 | 0.0 | 0.0 | 0.03 | 3.96 | 1.88 | 96 | 1011.5 |
| 20260904185522 | 14 | 0 | 0.0 | 0.0 | 0.03 | 4.45 | 1.88 | 96 | 1011.5 |
| 20260904184456 | 14 | 0 | 0.0 | 0.0 | 0.03 | 4.45 | 1.88 | 96 | 1011.4 |
| 20260904183943 | 13 | 0 | 0.0 | 0.0 | 0.03 | 4.45 | 1.88 | 96 | 1011.3 |
| 20260904183430 | 13 | 0 | 0.0 | 0.0 | 0.00 | 4.45 | 1.85 | 96 | 1011.2 |
| 20260904182917 | 13 | 0 | 0.0 | 0.0 | 0.00 | 4.45 | 1.85 | 96 | 1011.2 |
| 20260904182404 | 13 | 0 | 0.0 | 0.0 | 0.00 | 4.45 | 1.85 | 96 | 1011.2 |
| 20260904181851 | 13 | 0 | 0.0 | 0.0 | 0.00 | 4.45 | 1.85 | 96 | 1011.2 |
| 20260904180312 | 13 | 0 | 0.0 | 0.0 | 0.03 | 4.45 | 1.85 | 96 | 1011.0 |
| 20260904175759 | 13 | 0 | 0.0 | 0.0 | 0.03 | 4.57 | 1.85 | 96 | 1010.9 |
| 20260904175246 | 13 | 0 | 0.0 | 0.0 | 0.03 | 4.57 | 1.85 | 96 | 1010.8 |
| 20260904174733 | 13 | 0 | 0.0 | 0.0 | 0.05 | 4.57 | 1.85 | 96 | 1010.8 |
| 20260904173707 | 13 | 0 | 0.0 | 0.0 | 0.08 | 4.57 | 1.85 | 96 | 1010.6 |
| 20260904173154 | 12 | 0 | 0.0 | 0.0 | 0.08 | 4.57 | 1.85 | 96 | 1010.5 |
| 20260904172641 | 13 | 0 | 0.0 | 0.0 | 0.13 | 4.57 | 1.85 | 96 | 1010.5 |
| 20260904172129 | 13 | 0 | 0.0 | 0.0 | 0.13 | 4.57 | 1.85 | 96 | 1010.4 |
| 20260904171102 | 12 | 0 | 0.0 | 0.0 | 0.15 | 4.57 | 1.85 | 96 | 1010.4 |
| 20260904170549 | 13 | 0 | 0.0 | 0.0 | 0.13 | 4.57 | 1.83 | 96 | 1010.5 |
| 20260904170036 | 12 | 0 | 0.0 | 0.0 | 0.13 | 4.57 | 1.83 | 96 | 1010.4 |
| 20260904165010 | 12 | 0 | 0.0 | 0.0 | 0.13 | 4.47 | 1.83 | 96 | 1010.3 |
| 20260904164457 | 12 | 0 | 0.0 | 0.0 | 0.10 | 4.47 | 1.80 | 96 | 1010.3 |
| 20260904163944 | 12 | 0 | 0.0 | 0.0 | 0.10 | 4.47 | 1.80 | 96 | 1010.2 |
| 20260904163431 | 12 | 0 | 0.0 | 0.0 | 0.08 | 4.47 | 1.80 | 96 | 1010.3 |
| 20260904162918 | 12 | 0 | 0.0 | 0.0 | 0.05 | 4.47 | 1.78 | 96 | 1010.2 |
| 20260904162405 | 12 | 0 | 0.0 | 0.0 | 0.05 | 4.47 | 1.78 | 96 | 1010.2 |
| 20260904161852 | 12 | 0 | 0.0 | 0.0 | 0.08 | 4.47 | 1.73 | 96 | 1010.2 |
| 20260904160314 | 12 | 0 | 0.0 | 0.0 | 0.10 | 4.47 | 1.70 | 96 | 1010.2 |
| 20260904155800 | 12 | 0 | 0.0 | 0.0 | 0.13 | 4.37 | 1.70 | 96 | 1010.2 |
| 20260904155247 | 12 | 0 | 0.0 | 0.0 | 0.13 | 4.37 | 1.70 | 96 | 1010.1 |
| 20260904154734 | 12 | 0 | 0.0 | 0.0 | 0.18 | 4.37 | 1.70 | 96 | 1010.1 |
| 20260904154221 | 12 | 0 | 0.0 | 0.0 | 0.18 | 4.37 | 1.70 | 96 | 1010.1 |
| 20260904153155 | 12 | 0 | 0.0 | 0.0 | 0.18 | 4.37 | 1.70 | 96 | 1009.9 |
| 20260904152129 | 12 | 0 | 0.0 | 0.0 | 0.15 | 4.37 | 1.68 | 96 | 1009.9 |
| 20260904151616 | 12 | 0 | 0.0 | 0.0 | 0.10 | 4.37 | 1.65 | 96 | 1009.9 |
| 20260904151103 | 12 | 0 | 0.0 | 0.0 | 0.10 | 4.37 | 1.63 | 96 | 1009.8 |
| 20260904150037 | 12 | 0 | 0.0 | 0.0 | 0.08 | 4.37 | 1.60 | 96 | 1009.7 |
| 20260904145524 | 12 | 0 | 0.0 | 0.0 | 0.08 | 4.29 | 1.60 | 96 | 1009.6 |
| 20260904145011 | 12 | 0 | 0.0 | 0.0 | 0.08 | 4.29 | 1.57 | 96 | 1009.5 |
| 20260904144458 | 12 | 0 | 0.0 | 0.0 | 0.05 | 4.29 | 1.55 | 96 | 1009.5 |
| 20260904143945 | 12 | 0 | 0.0 | 0.0 | 0.05 | 4.29 | 1.52 | 96 | 1009.4 |
| 20260904143432 | 12 | 0 | 0.0 | 0.0 | 0.05 | 4.29 | 1.52 | 96 | 1009.3 |
| 20260904142919 | 12 | 0 | 0.0 | 0.0 | 0.05 | 4.29 | 1.52 | 96 | 1009.2 |
| 20260904142406 | 12 | 0 | 0.0 | 0.0 | 0.05 | 4.29 | 1.52 | 96 | 1009.1 |
| 20260904141853 | 12 | 0 | 0.0 | 0.0 | 0.10 | 4.29 | 1.52 | 96 | 1009.0 |
| 20260904141341 | 12 | 0 | 0.0 | 0.0 | 0.10 | 4.29 | 1.52 | 96 | 1009.1 |
| 20260904140828 | 12 | 0 | 0.0 | 0.0 | 0.15 | 4.29 | 1.52 | 96 | 1008.9 |
| 20260904140314 | 12 | 0 | 0.0 | 0.0 | 0.15 | 4.29 | 1.52 | 96 | 1008.8 |
| 20260904135801 | 12 | 0 | 0.0 | 0.0 | 0.25 | 4.14 | 1.50 | 96 | 1008.7 |
| 20260904135248 | 12 | 0 | 0.0 | 0.0 | 0.25 | 4.14 | 1.50 | 96 | 1008.7 |
| 20260904134735 | 12 | 0 | 0.0 | 14.5 | 0.23 | 4.14 | 1.50 | 96 | 1008.7 |
| 20260904134222 | 12 | 0 | 0.0 | 14.5 | 0.23 | 4.14 | 1.47 | 96 | 1008.6 |
| 20260904133709 | 12 | 176 | 3.2 | 14.5 | 0.23 | 4.14 | 1.47 | 96 | 1008.5 |
| 20260904133156 | 12 | 0 | 0.0 | 11.3 | 0.23 | 4.14 | 1.47 | 96 | 1008.4 |
| 20260904132643 | 12 | 0 | 0.0 | 11.3 | 0.23 | 4.14 | 1.47 | 96 | 1008.3 |
| 20260904132130 | 12 | 142 | 0.0 | 11.3 | 0.23 | 4.14 | 1.47 | 96 | 1008.3 |
| 20260904131617 | 12 | 0 | 0.0 | 0.0 | 0.18 | 4.14 | 1.47 | 96 | 1008.2 |
| 20260904131104 | 12 | 0 | 0.0 | 14.5 | 0.18 | 4.14 | 1.42 | 96 | 1008.1 |
| 20260904130551 | 12 | 0 | 0.0 | 14.5 | 0.15 | 4.14 | 1.37 | 96 | 1008.0 |
| 20260904125525 | 12 | 0 | 0.0 | 9.7 | 0.05 | 4.01 | 1.32 | 96 | 1007.9 |
| 20260904125012 | 12 | 0 | 0.0 | 9.7 | 0.05 | 4.01 | 1.24 | 96 | 1007.9 |
| 20260904124459 | 12 | 0 | 0.0 | 9.7 | 0.10 | 4.01 | 1.24 | 96 | 1007.9 |
| 20260904123946 | 12 | 0 | 0.0 | 0.0 | 0.10 | 4.01 | 1.24 | 96 | 1007.8 |
| 20260904123433 | 12 | 0 | 0.0 | 19.3 | 0.46 | 4.01 | 1.24 | 96 | 1007.9 |
| 20260904122920 | 12 | 0 | 0.0 | 19.3 | 0.56 | 4.01 | 1.24 | 96 | 1007.9 |
| 20260904122407 | 12 | 133 | 0.0 | 19.3 | 0.56 | 4.01 | 1.24 | 96 | 1007.8 |
| 20260904121854 | 12 | 0 | 0.0 | 0.0 | 0.64 | 4.01 | 1.24 | 96 | 1007.7 |
| 20260904121341 | 12 | 0 | 0.0 | 0.0 | 0.64 | 4.01 | 1.24 | 96 | 1007.8 |
| 20260904120830 | 12 | 0 | 0.0 | 4.8 | 0.66 | 4.01 | 1.24 | 96 | 1007.6 |
| 20260904120315 | 11 | 0 | 0.0 | 4.8 | 0.66 | 4.01 | 1.24 | 96 | 1007.6 |
| 20260904115802 | 12 | 0 | 0.0 | 4.8 | 0.74 | 3.99 | 1.22 | 96 | 1007.5 |
| 20260904115249 | 12 | 0 | 0.0 | 0.0 | 0.74 | 3.99 | 1.19 | 96 | 1007.3 |
| 20260904114736 | 12 | 0 | 0.0 | 4.8 | 0.84 | 3.99 | 1.19 | 96 | 1007.2 |
| 20260904114223 | 12 | 114 | 0.0 | 4.8 | 0.84 | 3.99 | 1.17 | 96 | 1007.1 |
| 20260904113710 | 12 | 0 | 0.0 | 4.8 | 0.53 | 3.99 | 1.09 | 96 | 1006.9 |
| 20260904113157 | 11 | 85 | 0.0 | 4.8 | 0.53 | 3.99 | 0.86 | 96 | 1007.1 |
| 20260904112644 | 12 | 0 | 0.0 | 0.0 | 0.46 | 3.99 | 0.74 | 96 | 1007.1 |
| 20260904112131 | 12 | 0 | 0.0 | 0.0 | 0.46 | 3.99 | 0.69 | 96 | 1007.1 |
| 20260904111618 | 11 | 0 | 0.0 | 0.0 | 0.38 | 3.99 | 0.66 | 96 | 1007.0 |
| 20260904105526 | 12 | 0 | 0.0 | 0.0 | 0.25 | 3.78 | 0.51 | 96 | 1006.7 |
| 20260904105013 | 12 | 0 | 0.0 | 0.0 | 0.25 | 3.78 | 0.46 | 96 | 1006.8 |
| 20260904104500 | 11 | 0 | 0.0 | 0.0 | 0.18 | 3.78 | 0.36 | 96 | 1007.1 |
| 20260904103947 | 11 | 0 | 0.0 | 0.0 | 0.18 | 3.78 | 0.30 | 96 | 1007.0 |
| 20260904103434 | 12 | 0 | 0.0 | 0.0 | 0.18 | 3.78 | 0.28 | 96 | 1007.0 |
| 20260904102921 | 12 | 0 | 0.0 | 0.0 | 0.18 | 3.78 | 0.25 | 95 | 1007.0 |
| 20260904102408 | 11 | 0 | 0.0 | 0.0 | 0.18 | 3.78 | 0.23 | 96 | 1006.9 |
| 20260904101855 | 11 | 0 | 0.0 | 0.0 | 0.18 | 3.78 | 0.23 | 96 | 1006.9 |
| 20260904101342 | 11 | 0 | 0.0 | 0.0 | 0.18 | 3.78 | 0.23 | 95 | 1006.7 |
| 20260904100829 | 12 | 0 | 0.0 | 0.0 | 0.18 | 3.78 | 0.23 | 95 | 1006.9 |
| 20260904100316 | 11 | 0 | 0.0 | 0.0 | 0.18 | 3.78 | 0.23 | 95 | 1006.9 |
| 20260904095803 | 11 | 0 | 0.0 | 0.0 | 0.15 | 3.63 | 0.23 | 95 | 1006.9 |
| 20260904095250 | 12 | 0 | 0.0 | 0.0 | 0.15 | 3.63 | 0.20 | 95 | 1007.0 |
| 20260904094737 | 12 | 0 | 0.0 | 0.0 | 0.08 | 3.63 | 0.18 | 96 | 1007.0 |